Iowa City, IA

5:53 PM CST on February 22, 2017 (GMT -0600)
Iowa City Municipal

Weather History for KIOW - June, 2013

Change the Weather History Date:

Saturday, June 22, 2013

  Actual Average Record
Temperature  
Mean Temperature 84 °F 73 °F  
Max Temperature 93 °F 83 °F 101 °F (1988)
Min Temperature 74 °F 63 °F 44 °F (1963)
Degree Days  
Heating Degree Days 0 0  
Month to date heating degree days 21 14  
Since 1 June heating degree days 21 14  
Since 1 July heating degree days 6449 6375  
Cooling Degree Days 19 8  
Month to date cooling degree days 127 138  
Year to date cooling degree days 214 199  
Since 1 June cooling degree days 127 138  
Growing Degree Days 32 (Base 50)    
Moisture  
Dew Point 72 °F    
Average Humidity 70    
Maximum Humidity 88    
Minimum Humidity 52    
Precipitation  
Precipitation 0.00 in 0.16 in 3.00 in (2007)
Month to date precipitation 0.77 3.24  
Year to date precipitation 22.01 15.33  
Sea Level Pressure  
Sea Level Pressure 29.95 in    
Wind  
Wind Speed 11 mph (SSE)    
Max Wind Speed 21 mph    
Max Gust Speed 25 mph    
Visibility 10 miles    
Events      
T = Trace of Precipitation, MM = Missing Value Source: NWS Daily Summary

Daily Weather History Graph

Daily Weather History Graph

Search for Another Location

Airport or City:

Trip Planner

Search our weather history database for the weather conditions in past years. The results will help you decide how hot, cold, wet, or windy it might be!

Date:

Astronomy

Jun. 22, 2013 Rise Set
Actual Time 5:32 AM CDT 8:44 PM CDT
Civil Twilight 4:58 AM CDT 9:18 PM CDT
Nautical Twilight 4:14 AM CDT 10:02 PM CDT
Astronomical Twilight 3:21 AM CDT 10:55 PM CDT
Moon 7:58 PM CDT 4:46 AM CDT
Length of Visible Light 16h 20m
Length of Day
15h 11m
Waxing Gibbous, 99% of the Moon is Illuminated
Jun 22
Waxing Gibbous
Jun 23
Full
Jun 29
Last Quarter
Jul 8
New
Jul 15
First Quarter

Hourly Weather History & Observations

Time (CDT) Temp. Heat Index Dew Point Humidity Pressure Visibility Wind Dir Wind Speed Gust Speed Precip Events Conditions
12:52 AM 77.0 °F - 73.0 °F 88% 29.93 in 10.0 mi SSE 8.1 mph - N/A   Clear
1:52 AM 79.0 °F - 73.0 °F 82% 29.87 in 10.0 mi South 13.8 mph - N/A   Clear
2:52 AM 80.1 °F 84.2 °F 73.0 °F 79% 29.92 in 10.0 mi South 9.2 mph - N/A   Clear
3:52 AM 79.0 °F - 73.0 °F 82% 29.95 in 10.0 mi South 5.8 mph - N/A   Clear
4:52 AM 78.1 °F - 73.0 °F 84% 29.94 in 10.0 mi South 8.1 mph - N/A   Partly Cloudy
5:52 AM 77.0 °F - 73.0 °F 88% 29.97 in 10.0 mi South 6.9 mph - N/A   Clear
6:52 AM 78.1 °F - 73.0 °F 84% 29.94 in 10.0 mi South 10.4 mph - N/A   Clear
7:52 AM 80.1 °F 84.2 °F 73.0 °F 79% 29.99 in 10.0 mi South 4.6 mph - N/A   Overcast
8:52 AM 81.0 °F 85.8 °F 73.0 °F 77% 29.99 in 10.0 mi SE 9.2 mph - N/A   Scattered Clouds
9:24 AM 75.2 °F - 69.8 °F 83% 30.02 in 10.0 mi East 8.1 mph - N/A   Overcast
9:52 AM 75.0 °F - 68.0 °F 79% 30.01 in 10.0 mi East 15.0 mph 21.9 mph N/A   Overcast
10:31 AM 73.4 °F - 68.0 °F 83% 30.04 in 10.0 mi ESE 9.2 mph - N/A   Overcast
10:52 AM 77.0 °F - 68.0 °F 74% 30.03 in 10.0 mi ESE 12.7 mph 19.6 mph N/A   Mostly Cloudy
11:10 AM 77.0 °F - 68.0 °F 74% 30.04 in 10.0 mi ESE 15.0 mph 18.4 mph N/A   Mostly Cloudy
11:18 AM 78.8 °F - 68.0 °F 69% 30.02 in 10.0 mi ESE 16.1 mph 21.9 mph N/A   Mostly Cloudy
11:52 AM 80.1 °F 83.2 °F 70.0 °F 71% 29.98 in 10.0 mi ESE 13.8 mph - N/A   Mostly Cloudy
12:52 PM 86.0 °F 93.8 °F 73.9 °F 67% 29.96 in 10.0 mi SSE 12.7 mph - N/A   Clear
1:52 PM 90.0 °F 99.0 °F 73.9 °F 59% 29.94 in 10.0 mi South 12.7 mph - N/A   Mostly Cloudy
2:52 PM 91.0 °F 100.4 °F 73.9 °F 57% 29.89 in 10.0 mi South 10.4 mph - N/A   Clear
3:52 PM 91.0 °F 99.3 °F 73.0 °F 55% 29.87 in 10.0 mi South 15.0 mph 24.2 mph N/A   Clear
4:52 PM 91.9 °F 100.7 °F 73.0 °F 54% 29.88 in 10.0 mi South 18.4 mph - N/A   Clear
5:52 PM 91.0 °F 98.2 °F 72.0 °F 53% 29.88 in 10.0 mi South 16.1 mph 23.0 mph N/A   Clear
6:52 PM 89.1 °F 96.0 °F 72.0 °F 57% 29.88 in 10.0 mi South 13.8 mph 25.3 mph N/A   Clear
7:52 PM 87.1 °F 93.6 °F 72.0 °F 61% 29.87 in 10.0 mi South 10.4 mph - N/A   Clear
8:52 PM 86.0 °F 92.2 °F 72.0 °F 63% 29.89 in 10.0 mi South 10.4 mph - N/A   Clear
9:52 PM 82.9 °F 89.4 °F 73.9 °F 74% 29.90 in 10.0 mi South 10.4 mph - N/A   Clear
10:52 PM 80.1 °F 84.5 °F 73.9 °F 81% 29.94 in 10.0 mi SSE 11.5 mph - N/A   Clear
11:52 PM 78.1 °F - 72.0 °F 81% 29.95 in 10.0 mi South 10.4 mph - N/A   Clear